{"data":{"norad_id":61942,"epoch":"2026-09-21T22:06:15.945696Z","epoch_age_seconds":62886,"freshness":"FRESH","line1":"1 61942U 24209D   26264.92101789  .00118663  00000+0  96973-3 0  9997","line2":"2 61942  53.1564 124.2535 0001648  32.1754 327.9364 15.69725279107499","mean_motion":15.69725279,"eccentricity":0.0001648,"inclination_deg":53.1564,"raan_deg":124.2535,"arg_perigee_deg":32.1754,"mean_anomaly_deg":327.9364,"bstar":0.00096973,"rev_number":10749,"period_min":91.735797292973,"perigee_km":358.57263538428,"apogee_km":360.79342086555,"semimajor_km":6737.8200281249,"source":"CELESTRAK","updated_at":"2026-09-22T09:00:49.454112Z"}}